Date,TemperatureHighF,TemperatureAvgF,TemperatureLowF,DewpointHighF,DewpointAvgF,DewpointLowF,HumidityHigh,HumidityAvg,HumidityLow,PressureMaxIn,PressureMinIn,WindSpeedMaxMPH,WindSpeedAvgMPH,GustSpeedMaxMPH,PrecipitationSumIn
2013-3-1,59.5,51.4,41.9,41.1,38.5,35.1,78,63,44,30.20,29.91,17,2,17,0.00
2013-3-2,54.6,52.5,48.3,42.3,39.6,34.2,69,62,52,30.04,29.80,30,9,30,0.00
2013-3-3,62.7,51.7,42.6,41.3,33.5,27.6,77,52,27,30.14,30.03,14,3,14,0.00
2013-3-4,63.1,49.7,39.0,46.0,38.7,28.8,76,67,48,30.26,30.13,12,1,12,0.00
2013-3-5,66.0,51.6,39.0,45.6,37.9,28.7,77,61,28,30.26,30.06,13,1,13,0.00
2013-3-6,64.2,57.2,51.4,50.5,44.2,32.7,76,64,35,30.08,29.81,39,8,39,0.53
2013-3-7,62.9,58.3,56.1,54.8,47.7,40.7,76,68,57,29.87,29.79,19,5,19,0.04
2013-3-8,64.7,57.8,51.8,53.0,44.6,29.6,76,62,41,29.87,29.74,18,5,18,0.35
2013-3-9,65.3,58.7,53.9,51.8,47.3,40.1,76,66,46,29.87,29.77,20,6,20,0.00
2013-3-10,65.4,58.3,54.1,52.5,46.1,35.2,76,64,48,29.79,29.67,21,6,21,0.10
2013-3-11,60.9,56.7,52.7,50.8,47.9,40.8,76,73,64,29.71,29.65,18,6,18,0.25
2013-3-12,58.8,52.5,46.9,49.2,42.8,30.0,77,70,49,29.69,29.58,22,5,22,1.59
2013-3-13,57.5,52.2,48.7,48.0,42.4,32.7,77,69,52,29.61,29.32,21,4,21,0.45
2013-3-14,51.6,48.2,44.2,43.2,34.3,25.9,77,59,43,29.37,29.13,12,2,12,1.18
2013-3-15,45.3,41.7,36.1,35.4,29.8,21.3,78,63,50,29.91,29.35,20,5,20,0.83
2013-3-16,53.4,43.3,34.8,32.6,28.8,23.4,78,59,33,30.20,29.91,12,2,12,0.00
2013-3-17,55.5,47.6,35.4,42.4,35.0,28.8,78,63,46,30.19,29.91,20,4,20,0.00
2013-3-18,64.5,57.4,51.9,51.6,46.0,35.7,76,66,45,29.91,29.64,30,9,30,0.31
2013-3-19,61.7,54.4,44.7,45.7,41.9,36.6,77,63,47,29.90,29.76,18,4,18,0.00
2013-3-20,64.9,52.8,40.6,43.3,37.4,31.8,77,59,35,29.90,29.75,9,1,9,0.00
2013-3-21,62.2,55.5,46.9,47.4,39.6,27.9,77,56,36,30.02,29.69,22,4,22,0.08
2013-3-22,61.5,51.9,41.3,46.8,41.3,33.0,77,68,53,30.02,29.93,14,2,14,0.00
2013-3-23,67.8,54.5,42.4,48.2,40.4,26.8,76,60,35,30.01,29.85,16,2,16,0.00
2013-3-24,75.3,61.4,48.0,46.9,40.0,28.7,77,50,19,29.86,29.52,23,4,23,0.00
2013-3-25,62.0,57.8,54.6,51.2,47.4,34.0,76,69,45,29.56,29.38,20,7,20,0.27
2013-3-26,58.8,54.1,51.0,50.0,43.9,30.3,76,69,46,29.66,29.56,19,3,19,0.22
2013-3-27,60.4,54.9,49.2,50.5,45.4,33.3,76,70,54,29.89,29.65,20,4,20,0.02
2013-3-28,63.5,56.7,51.9,53.1,46.9,38.7,76,70,54,29.97,29.86,16,2,16,0.00
2013-3-29,69.6,60.5,52.3,56.1,44.6,27.5,75,57,38,29.96,29.86,19,4,19,0.04
2013-3-30,66.0,58.2,51.2,53.0,47.1,34.8,76,67,51,29.87,29.60,19,6,19,0.16
2013-3-31,58.4,56.0,53.4,50.5,47.3,43.3,77,73,60,29.77,29.61,23,10,23,0.37